Weather in Prishib

Russia / Astrakhan Oblast     47°40′40″N   46°28′18″E
temp.,
°C
wind,
m/s
gust,
m/s
humid.,
%
clouds,
%
prec.,
mm/h
press.,
hPa
HPBL,
m
1 august, sun
sun101:00+27ese33214 0.0 101114
04:00+24sse33312 0.0 101122
07:00+26sse23420 0.0 101288
10:00+32ese23260 0.0 1012817
13:00+35se44220 0.0 10112421
16:00+36se43210 0.0 10102474
19:00+35ese33232 0.0 10101911
22:00+30ese22335 0.0 101012
2 august, mon
mon201:00+29s3639100 0.4 1011113
04:00+28ssw344543 0.4 101143
07:00+28s224433 0.3 101267
10:00+34s442229 0.3 1012844
13:00+37s561533 0.0 10112334
16:00+38s56135 0.0 10103227
19:00+38sse45135 0.0 1010790
22:00+32sse341849 0.0 101029
3 august, tue
tue301:00+29s462132 0.0 101086
04:00+26wsw22265 0.0 101111
07:00+29s33255 0.0 101264
10:00+36s33155 0.0 1011781
13:00+40ssw5793 0.0 10113673
16:00+40ssw5695 0.0 10094209
19:00+39ssw341013 0.0 1009267
22:00+31sse22160 0.0 100911
4 august, wed
wed401:00+30ssw45160 0.0 100957
04:00+28ssw44210 0.0 100940
07:00+28ssw362439 0.0 1010128
10:00+36ssw4415100 0.0 1010625
13:00+39wsw5616100 0.0 10102284
16:00+35wsw5624100 0.4 10101003
19:00+34nnw332331 0.1 1010233
22:00+30nnw612366 0.1 1011363
5 august, thu
thu501:00+27nnw4841100 0.0 1012189
04:00+25nnw4548100 0.4 1013100
07:00+25nnw4655100 0.0 1014225
10:00+26n2352100 0.6 1015488
13:00+32n5535100 0.0 10141888
16:00+34n55240 0.0 10133026
19:00+32n65220 0.0 10132535
22:00+27n462858 0.0 101490